When you browse on this site, cookies collect data to enhance your experience and personalize the content and advertising you see.
Visit our Privacy Policy to learn more. By continuing to use the site, you agree to this use of cookies and data.
  • In Hungary
  • List of Countries
  • For 7 days
  • Water Temperature
  • Weather Map
  • News
  • Weather Widgets
  • user-avatar
    Login

    Hourly Weather Klagenfurt

    Today, 31 May, Sunday

    Time Temperature Precipitation Wind Pressure Humidity
    00:00 +5°C° 0 mm 0 mps 690 mmHg 94%
    01:00 +5°C° 0 mm 1 mps 690 mmHg 93%
    02:00 +5°C° 0 mm 1 mps 690 mmHg 93%
    03:00 +4°C° 0 mm 1 mps 690 mmHg 94%
    04:00 +4°C° 0 mm 1 mps 690 mmHg 94%
    05:00 +6°C° 0 mm 1 mps 690 mmHg 91%
    06:00 +7°C° 0 mm 1 mps 690 mmHg 87%
    07:00 +9°C° 0 mm 1 mps 690 mmHg 84%
    08:00 +11°C° 0 mm 1 mps 690 mmHg 73%
    09:00 +13°C° 0 mm 1 mps 690 mmHg 62%
    10:00 +15°C° 0 mm 1 mps 691 mmHg 51%
    11:00 +16°C° 0.1 mm 1 mps 691 mmHg 50%
    12:00 +16°C° 0.1 mm 1 mps 691 mmHg 48%
    13:00 +16°C° 0.1 mm 1 mps 690 mmHg 46%
    14:00 +16°C° 0.1 mm 1 mps 690 mmHg 51%
    15:00 +15°C° 0.1 mm 1 mps 690 mmHg 55%
    16:00 +15°C° 0.1 mm 1 mps 690 mmHg 59%
    17:00 +14°C° 0.1 mm 1 mps 690 mmHg 65%
    18:00 +13°C° 0.1 mm 1 mps 690 mmHg 71%
    19:00 +11°C° 0.1 mm 1 mps 690 mmHg 77%
    20:00 +11°C° 0 mm 1 mps 690 mmHg 78%
    21:00 +10°C° 0 mm 1 mps 690 mmHg 79%
    22:00 +9°C° 0 mm 1 mps 690 mmHg 80%
    23:00 +9°C° 0 mm 1 mps 690 mmHg 82%

    Tomorrow, 1 June, Monday

    Time Temperature Precipitation Wind Pressure Humidity
    00:00 +8°C° 0 mm 1 mps 690 mmHg 84%
    01:00 +8°C° 0 mm 1 mps 690 mmHg 87%
    02:00 +8°C° 0 mm 1 mps 690 mmHg 87%
    03:00 +7°C° 0 mm 1 mps 690 mmHg 87%
    04:00 +7°C° 0 mm 1 mps 690 mmHg 87%
    05:00 +9°C° 0 mm 1 mps 690 mmHg 81%
    06:00 +11°C° 0 mm 1 mps 691 mmHg 75%
    07:00 +13°C° 0 mm 1 mps 691 mmHg 69%
    08:00 +15°C° 0 mm 1 mps 692 mmHg 61%
    09:00 +18°C° 0 mm 1 mps 692 mmHg 53%
    10:00 +20°C° 0 mm 1 mps 692 mmHg 44%
    11:00 +21°C° 0 mm 1 mps 692 mmHg 42%
    12:00 +21°C° 0 mm 1 mps 692 mmHg 40%
    13:00 +22°C° 0 mm 1 mps 692 mmHg 38%
    14:00 +22°C° 0 mm 1 mps 692 mmHg 40%
    15:00 +21°C° 0 mm 2 mps 692 mmHg 42%
    16:00 +20°C° 0 mm 2 mps 692 mmHg 45%
    17:00 +20°C° 0.1 mm 1 mps 691 mmHg 55%
    18:00 +18°C° 0.1 mm 1 mps 691 mmHg 66%
    19:00 +15°C° 0.1 mm 1 mps 690 mmHg 77%
    20:00 +14°C° 0 mm 1 mps 691 mmHg 80%
    21:00 +12°C° 0 mm 1 mps 691 mmHg 82%
    22:00 +11°C° 0 mm 1 mps 691 mmHg 85%
    23:00 +10°C° 0 mm 0 mps 691 mmHg 86%

    Day after tomorrow, 2 June, Tuesday

    Time Temperature Precipitation Wind Pressure Humidity
    00:00 +10°C° 0 mm 0 mps 691 mmHg 87%
    01:00 +9°C° 0 mm 0 mps 691 mmHg 89%
    02:00 +9°C° 0 mm 0 mps 690 mmHg 90%
    03:00 +8°C° 0 mm 0 mps 690 mmHg 91%
    04:00 +8°C° 0 mm 0 mps 690 mmHg 93%
    05:00 +9°C° 0 mm 0 mps 690 mmHg 88%
    06:00 +11°C° 0 mm 0 mps 690 mmHg 83%
    07:00 +12°C° 0 mm 0 mps 690 mmHg 78%
    08:00 +15°C° 0 mm 1 mps 690 mmHg 71%
    09:00 +18°C° 0 mm 1 mps 691 mmHg 63%
    10:00 +20°C° 0 mm 1 mps 691 mmHg 56%
    11:00 +20°C° 0.2 mm 1 mps 691 mmHg 55%
    12:00 +21°C° 0.2 mm 1 mps 690 mmHg 55%
    13:00 +22°C° 0.2 mm 1 mps 690 mmHg 54%
    14:00 +21°C° 0.7 mm 1 mps 690 mmHg 59%
    15:00 +20°C° 0.7 mm 1 mps 689 mmHg 64%
    16:00 +19°C° 0.7 mm 1 mps 689 mmHg 69%
    17:00 +18°C° 0.8 mm 1 mps 688 mmHg 76%
    18:00 +16°C° 0.8 mm 1 mps 688 mmHg 82%
    19:00 +14°C° 0.8 mm 1 mps 687 mmHg 89%
    20:00 +13°C° 0.2 mm 1 mps 687 mmHg 90%
    21:00 +11°C° 0.2 mm 1 mps 687 mmHg 91%
    22:00 +10°C° 0.2 mm 1 mps 687 mmHg 92%
    23:00 +9°C° 0 mm 1 mps 687 mmHg 93%

    3 June, Wednesday

    Time Temperature Precipitation Wind Pressure Humidity
    00:00 +8°C° 0 mm 0 mps 687 mmHg 93%
    01:00 +8°C° 0 mm 0 mps 686 mmHg 94%
    02:00 +7°C° 0 mm 0 mps 686 mmHg 94%
    03:00 +7°C° 0 mm 0 mps 686 mmHg 94%
    04:00 +8°C° 0 mm 1 mps 686 mmHg 95%
    05:00 +9°C° 0 mm 0 mps 686 mmHg 92%
    06:00 +10°C° 0 mm 0 mps 686 mmHg 89%
    07:00 +12°C° 0 mm 0 mps 686 mmHg 87%
    08:00 +14°C° 0.1 mm 0 mps 686 mmHg 79%
    09:00 +16°C° 0.1 mm 0 mps 687 mmHg 71%
    10:00 +20°C° 0.1 mm 1 mps 687 mmHg 64%
    11:00 +20°C° 0.6 mm 1 mps 687 mmHg 66%
    12:00 +20°C° 0.6 mm 1 mps 686 mmHg 68%
    13:00 +19°C° 0.6 mm 2 mps 686 mmHg 70%
    14:00 +19°C° 0.4 mm 2 mps 686 mmHg 69%
    15:00 +19°C° 0.4 mm 2 mps 685 mmHg 68%
    16:00 +19°C° 0.4 mm 2 mps 685 mmHg 68%
    17:00 +17°C° 0.2 mm 2 mps 685 mmHg 75%
    18:00 +16°C° 0.2 mm 1 mps 684 mmHg 81%
    19:00 +15°C° 0.2 mm 1 mps 684 mmHg 88%
    20:00 +13°C° 0 mm 1 mps 684 mmHg 91%
    21:00 +12°C° 0 mm 1 mps 684 mmHg 93%
    22:00 +11°C° 0 mm 1 mps 684 mmHg 95%
    23:00 +11°C° 0 mm 1 mps 684 mmHg 95%

    4 June, Thursday

    Time Temperature Precipitation Wind Pressure Humidity
    00:00 +11°C° 0 mm 1 mps 684 mmHg 96%
    01:00 +10°C° 0 mm 1 mps 683 mmHg 96%
    02:00 +10°C° 0 mm 1 mps 683 mmHg 96%
    03:00 +10°C° 0 mm 1 mps 683 mmHg 96%
    04:00 +10°C° 0 mm 1 mps 683 mmHg 96%
    05:00 +12°C° 0 mm 1 mps 683 mmHg 93%
    06:00 +13°C° 0 mm 1 mps 684 mmHg 90%
    07:00 +14°C° 0 mm 1 mps 684 mmHg 86%
    08:00 +16°C° 0 mm 1 mps 684 mmHg 80%
    09:00 +17°C° 0 mm 2 mps 684 mmHg 73%
    10:00 +18°C° 0 mm 2 mps 685 mmHg 67%
    11:00 +19°C° 0.2 mm 3 mps 685 mmHg 66%
    12:00 +19°C° 0.2 mm 3 mps 684 mmHg 66%
    13:00 +19°C° 0.2 mm 4 mps 684 mmHg 66%
    14:00 +18°C° 0.2 mm 3 mps 684 mmHg 70%
    15:00 +17°C° 0.2 mm 3 mps 683 mmHg 75%
    16:00 +16°C° 0.2 mm 3 mps 683 mmHg 80%
    17:00 +14°C° 0.1 mm 3 mps 683 mmHg 83%
    18:00 +15°C° 0.1 mm 2 mps 682 mmHg 87%
    19:00 +14°C° 0.1 mm 2 mps 682 mmHg 90%
    20:00 +14°C° 0.6 mm 1 mps 683 mmHg 92%
    21:00 +14°C° 0.6 mm 1 mps 683 mmHg 94%
    22:00 +13°C° 0.6 mm 1 mps 683 mmHg 97%
    23:00 +13°C° 0.5 mm 1 mps 684 mmHg 97%

    5 June, Friday

    Time Temperature Precipitation Wind Pressure Humidity
    00:00 +13°C° 0.5 mm 1 mps 684 mmHg 97%
    01:00 +13°C° 0.5 mm 1 mps 684 mmHg 98%
    02:00 +12°C° 0.2 mm 0 mps 684 mmHg 98%
    03:00 +12°C° 0.2 mm 0 mps 684 mmHg 98%
    04:00 +12°C° 0.2 mm 0 mps 684 mmHg 98%
    05:00 +14°C° 0 mm 1 mps 684 mmHg 97%
    06:00 +14°C° 0 mm 1 mps 685 mmHg 96%
    07:00 +15°C° 0 mm 1 mps 685 mmHg 95%
    08:00 +16°C° 0.1 mm 1 mps 685 mmHg 90%
    09:00 +17°C° 0.1 mm 2 mps 686 mmHg 84%
    10:00 +18°C° 0.1 mm 2 mps 686 mmHg 79%
    11:00 +19°C° 0.1 mm 2 mps 686 mmHg 74%
    12:00 +20°C° 0.1 mm 3 mps 686 mmHg 69%
    13:00 +21°C° 0.1 mm 3 mps 686 mmHg 64%
    14:00 +20°C° 0.1 mm 3 mps 686 mmHg 65%
    15:00 +20°C° 0.1 mm 3 mps 686 mmHg 65%
    16:00 +20°C° 0.1 mm 3 mps 686 mmHg 66%
    17:00 +19°C° 0 mm 3 mps 686 mmHg 73%
    18:00 +18°C° 0 mm 2 mps 685 mmHg 79%
    19:00 +16°C° 0 mm 2 mps 685 mmHg 86%
    20:00 +15°C° 0 mm 2 mps 685 mmHg 89%
    21:00 +14°C° 0 mm 2 mps 685 mmHg 93%
    22:00 +13°C° 0 mm 1 mps 685 mmHg 96%
    23:00 +13°C° 0.1 mm 1 mps 685 mmHg 96%
    Show more